Akron, CO

2:24 AM MDT on June 29, 2017 (GMT -0600)
Akron-Washington County

Weather History for KAKO - October, 2014

Change the Weather History Date:

Monday, October 13, 2014

  Actual Average Record
Temperature  
Mean Temperature 48 °F 51 °F  
Max Temperature 59 °F 65 °F 85 °F (1958)
Min Temperature 36 °F 38 °F 12 °F (1969)
Degree Days  
Heating Degree Days 17    
Month to date heating degree days 146  
Cooling Degree Days 0    
Month to date cooling degree days 0  
Moisture  
Dew Point 31 °F    
Average Humidity 61    
Maximum Humidity 92    
Minimum Humidity 30    
Precipitation  
Precipitation 0.00 in 0.04 in 0.66 in (1957)
Month to date precipitation 0.22 0.55  
Year to date precipitation 17.76 15.20  
Sea Level Pressure  
Sea Level Pressure 30.11 in    
Wind  
Wind Speed 17 mph (NNW)    
Max Wind Speed 31 mph    
Max Gust Speed 39 mph    
Visibility 10 miles    
Events      
T = Trace of Precipitation, MM = Missing Value Source: NWS Daily Summary

Daily Weather History Graph

Daily Weather History Graph

Search for Another Location

Airport or City:

Trip Planner

Search our weather history database for the weather conditions in past years. The results will help you decide how hot, cold, wet, or windy it might be!

Date:

Astronomy

Oct. 13, 2014 Rise Set
Actual Time 7:01 AM MDT 6:16 PM MDT
Civil Twilight 6:34 AM MDT 6:43 PM MDT
Nautical Twilight 6:02 AM MDT 7:14 PM MDT
Astronomical Twilight 5:31 AM MDT 7:46 PM MDT
Moon 10:28 PM MDT (10/13) 12:17 PM MDT (10/13)
Length of Visible Light 12h 09m
Length of Day
11h 14m
Waning Gibbous, 70% of the Moon is Illuminated
Oct 13
Waning Gibbous
Oct 15
Last Quarter
Oct 23
New
Oct 30
First Quarter
Nov 6
Full

Hourly Weather History & Observations

Time (MDT) Temp. Windchill Dew Point Humidity Pressure Visibility Wind Dir Wind Speed Gust Speed Precip Events Conditions
12:53 AM 39.9 °F 30.8 °F 36.0 °F 86% 30.02 in 10.0 mi NW 18.4 mph 25.3 mph N/A   Partly Cloudy
1:53 AM 39.9 °F 31.4 °F 36.0 °F 86% 30.07 in 10.0 mi NNW 16.1 mph - N/A   Clear
2:53 AM 39.0 °F 30.6 °F 36.0 °F 89% 30.08 in 10.0 mi NNW 15.0 mph - N/A   Scattered Clouds
3:53 AM 37.9 °F 29.2 °F 35.1 °F 89% 30.09 in 10.0 mi NNW 15.0 mph - N/A   Clear
4:53 AM 37.0 °F 28.1 °F 34.0 °F 89% 30.11 in 10.0 mi NW 15.0 mph - N/A   Clear
5:53 AM 36.0 °F 27.1 °F 34.0 °F 93% 30.13 in 10.0 mi NNW 13.8 mph - N/A   Clear
6:53 AM 37.0 °F 27.4 °F 34.0 °F 89% 30.14 in 10.0 mi NW 17.3 mph 24.2 mph N/A   Clear
7:53 AM 39.9 °F 31.4 °F 34.0 °F 79% 30.17 in 10.0 mi NW 16.1 mph - N/A   Clear
8:53 AM 45.0 °F 37.1 °F 35.1 °F 68% 30.17 in 10.0 mi NNW 19.6 mph 27.6 mph N/A   Clear
9:53 AM 48.9 °F - 34.0 °F 56% 30.16 in 10.0 mi NNW 24.2 mph 33.4 mph N/A   Clear
10:53 AM 51.1 °F - 33.1 °F 50% 30.15 in 10.0 mi NNW 24.2 mph 33.4 mph N/A   Partly Cloudy
11:53 AM 53.1 °F - 32.0 °F 45% 30.13 in 10.0 mi North 23.0 mph 31.1 mph N/A   Scattered Clouds
12:53 PM 55.0 °F - 30.9 °F 40% 30.09 in 10.0 mi NNW 19.6 mph 31.1 mph N/A   Scattered Clouds
1:53 PM 55.9 °F - 27.0 °F 33% 30.06 in 10.0 mi North 31.1 mph 35.7 mph N/A   Scattered Clouds
2:53 PM 57.9 °F - 27.0 °F 31% 30.06 in 10.0 mi NNW 24.2 mph 33.4 mph N/A   Scattered Clouds
3:53 PM 57.9 °F - 26.1 °F 30% 30.06 in 10.0 mi NNW 21.9 mph 32.2 mph N/A   Partly Cloudy
4:53 PM 55.9 °F - 25.0 °F 30% 30.08 in 10.0 mi NNW 20.7 mph - N/A   Clear
5:53 PM 53.1 °F - 26.1 °F 35% 30.11 in 10.0 mi North 15.0 mph - N/A   Clear
6:53 PM 42.1 °F 38.4 °F 27.0 °F 55% 30.14 in 10.0 mi North 5.8 mph - N/A   Clear
7:53 PM 43.0 °F 39.5 °F 27.0 °F 53% 30.14 in 10.0 mi North 5.8 mph - N/A   Clear
8:53 PM 41.0 °F 35.8 °F 27.0 °F 57% 30.15 in 10.0 mi North 8.1 mph - N/A   Clear
9:53 PM 39.9 °F 33.9 °F 26.1 °F 58% 30.14 in 10.0 mi NNW 9.2 mph - N/A   Clear
10:53 PM 37.0 °F 30.4 °F 27.0 °F 67% 30.15 in 10.0 mi West 9.2 mph - N/A   Clear
11:53 PM 39.0 °F 33.4 °F 28.0 °F 65% 30.13 in 10.0 mi SW 8.1 mph - N/A   Clear